SCP
0 0 0 0 0 0 0 0 0 0 0 0 0 0 0 0 0 0 0 0 0 0 0 0 0 0 0 0 0 0 0 0 0 0 0 0 0 0 0 0 0 0 0 0
0 0 0 0 0 0 0 0 0 0 0 0 0 0 0 0 0 0 0 0 0 0 0 0 0 0 0 0 0 0 0 0 0 0 0 0 0 0 0 0 0 0 0 0
0 0 0 0 0 0 0 0 0 0 0 0 0 0 0 -0 0 0 0 0 0 0 0 0 0 0 0 0 0 0 0 0 0 0 0 0 0 0 0 0 0 0 0 0
0 0 0 0 0 0 0 0 0 0 0 0 0 0 0 0 0 0 0 0 0 0 0 0 0 0 0 0 0 0 0 0 0 0 0 0 0 0 0 0 0 0 0 0
0 0 0 0 0 0 0 0 0 0 0 0 0 0 0 0 0 0 0 0 0 0 0 0 0 0 0 0 0 0 0 0 0 0 0 0 0 0 0 0 0 0 0 0
0 0 0 0 0 0 0 0 0 0 0 0 0 0 0 0 0 0 0 0 0 0 0 0 0 0 0 0 0 0 0 0 0 0 0 0 0 0 0 0 0 0 0 0
0 0 0 0 0 0 0 0 0 0 0 0 0 0 0 0 0 0 0 0 0 0 0 0 0 0 0 0 0 0 0 0 0 0 0 0 0 0 0 0 0 0 0 0
0 0 0 0 0 0 0 0 0 0 0 0 0 0 0 0 0 0 0 0 0 0 0 0 0 0 0 0 0 0 0 0 0 0 0 0 0 0 0 0 0 0 0 0
0 0 0 0 0 0 0 0 0 0 0 0 0 0 0 0 0 0 0 0 0 0 0 0 0 0 0 0 0 0 0 0 0 0 0 0 0 0 0 0 0 0 0 0
0 0 0 0 0 0 0 0 0 0 0 0 0 0 0 0 0 0 0 0 0 0 0 0 0 0 0 0 0 0 0 0 0 0 0 0 0 0 0 0 0 0 0 0
0 0 0 0 0 0 0 0 0 0 0 0 0 0 0 0 0 0 0 0 0 0 0 0 0 0 0 0 0 0 0 0 0 0 0 0 0 0 0 0 0 0 0 0
0 0 0 0 0 0 0 0 0 0 0 0 0 0 0 0 0 0 0 0 0 0 0 0 0 0 0 0 0 0 0 0 0 0 0 0 0 0 0 0 0 0 0 0
0 0 0 0 0 0 0 0 0 0 0 0 0 0 0 0 0 0 0 0 0 0 0 0 0 0 0 0 0 0 0 0 0 0 0 0 0 0 0 0 0 0 0 0
0 0 0 0 0 0 0 0 0 0 0 0 0 0 0 0 0 0 0 0 0 0 0 0 0 0 0 0 0 0 0 0 0 0 0 0 0 0 0 0 0 0 0 0
0 0 0 0 0 0 0 0 0 0 0 0 0 0 0 0 0 0 0 0 0 0 0 0 0 0 0 0 0 0 0 0 0 0 0 0 0 0 0 0 0 0 0 0
0 0 0 0 0 0 0 0 0 0 0 0 0 0 0 0 0 0 0 0 0 0 0 0 0 0 0 0 0 0 0 0 0 0 0 0 0 0 0 0 0 0 0 0
0 0 0 0 0 0 0 0 0 0 0 0 0 0 0 0 0 0 0 0 0 0 0 0 0 0 0 0 0 0 0 0 0 0 0 0 0 0 0 0 0 0 0 0
0 0 0 0 0 0 0 0 0 0 0 0 0 0 0 0 0 0 0 0 0 0 0 0 0 0 0 0 0 0 0 0 0 0 0 0 0 0 0 0 0 0 0 0
0 0 0 0 0 0 0 0 0 0 0 0 0 0 0 0 0 0 0 0 0 0 0 0 0 0 0 0 0 0 0 0 0 0 0 0 0 0 0 0 0 0 0 0
0 0 0 1 0 0 0 0 0 0 0 0 0 0 0 0 0 0 0 0 0 0 0 0 0 0 0 0 0 0 0 0 0 0 0 0 0 0 0 0 0 0 0 0
0 0 0 0 0 0 0 0 0 0 0 0 0 0 0 0 0 0 0 0 0 0 0 0 0 0 0 0 0 0 0 0 0 0 0 0 0 0 0 0 0 0 0 0
0 0 0 0 1 0 0 0 0 0 0 0 0 0 0 0 0 0 0 0 0 0 0 0 0 0 0 0 0 0 0 0 0 0 0 0 0 0 0 0 0 0 0 0
0 0 0 0 0 0 0 0 0 0 0 0 0 0 0 0 0 0 0 0 0 0 0 0 0 0 0 0 0 0 0 0 0 0 0 0 0 0 0 0 0 0 0 0
0 0 -0 -0 0 0 0 0 0 0 0 0 0 0 0 0 0 0 0 0 0 0 0 0 0 0 0 0 0 0 0 0 0 0 0 0 0 0 0 0 0 0 0 0
0 -0 -0 0 0 0 0 0 0 0 0 0 0 0 0 0 0 0 0 0 0 0 0 0 0 0 0 0 0 0 0 0 0 0 0 0 0 0 0 0 0 0 0 0
0 0 0 0 0 0 0 0 0 0 0 0 0 0 0 0 0 0 0 0 0 0 0 0 0 0 0 0 0 0 0 0 0 0 0 0 0 0 0 0 0 0 0 0
Wind_Speed_500mb
23 20 33 41 42 32 21 28 34 23 9 9 34 39 38 42 37 38 45 50 52 63 66 57 55 52 58 61 60 57 58 57 64 69 60 57 66 63 62 61 55 51 52 53
12 33 28 26 32 37 34 32 31 16 8 10 32 47 36 41 46 48 51 51 60 62 52 44 40 52 57 62 60 54 52 56 56 60 60 53 49 57 55 55 54 53 52 52
38 10 37 18 23 39 40 41 33 31 9 16 24 51 38 29 36 39 39 50 51 52 44 40 51 50 51 49 55 51 48 47 46 47 47 47 42 46 50 52 51 50 47 43
29 43 17 39 33 28 35 23 21 22 9 18 2 22 28 29 32 29 42 42 42 33 27 34 34 38 34 34 35 39 37 37 39 39 38 39 34 31 26 25 29 34 37 36
18 27 40 36 42 35 24 14 18 13 15 13 33 17 5 18 14 30 40 28 21 19 13 13 13 16 18 16 15 14 15 21 24 26 28 24 25 21 25 28 27 27 27 27
19 1 32 29 15 31 17 14 11 14 17 26 38 30 27 26 21 8 8 8 8 5 4 3 3 6 8 11 14 13 10 4 5 11 17 19 19 20 23 26 28 26 27 28
20 22 9 12 26 15 26 22 8 12 14 21 4 25 35 7 13 21 24 7 10 14 15 16 16 16 17 18 20 24 25 26 22 17 16 16 14 14 15 18 21 25 28 31
28 18 37 26 30 20 37 31 13 17 21 18 6 22 16 9 3 7 1 17 16 15 19 19 19 20 22 22 24 26 28 31 30 29 27 24 21 19 15 11 7 2 2 6
24 24 3 14 15 31 21 32 31 13 5 3 14 20 17 21 10 12 21 23 22 19 19 22 23 24 26 26 26 27 28 30 30 30 28 25 22 20 18 15 12 11 10 10
13 8 10 25 12 22 17 22 9 11 15 14 23 30 26 14 15 17 25 33 31 27 28 27 27 28 27 28 29 29 29 29 29 28 26 25 22 19 16 13 11 11 11 12
17 8 11 14 35 40 22 20 15 9 14 15 19 22 15 26 19 26 33 32 33 31 32 35 31 30 27 25 24 24 23 22 21 20 19 15 13 10 7 6 7 9 12 14
31 13 19 27 3 31 41 40 41 17 18 13 21 34 14 14 15 25 29 35 34 33 35 36 32 27 24 22 19 16 15 14 13 11 9 7 8 7 8 11 13 15 18 20
30 16 10 10 11 11 24 38 37 34 1 30 19 18 9 13 16 23 31 38 40 38 38 35 32 28 22 17 16 13 9 8 7 7 8 9 10 10 12 14 16 16 18 21
46 24 33 32 25 20 30 35 39 36 18 37 32 47 38 24 25 30 37 44 45 43 42 37 33 31 24 17 12 8 4 4 1 4 11 12 11 12 14 17 21 24 24 25
24 17 37 40 35 20 37 44 42 45 51 33 43 41 53 40 33 49 51 50 50 45 42 43 37 30 26 20 13 9 7 6 8 11 12 11 9 15 21 25 26 29 33 36
23 17 25 36 35 31 25 27 41 50 50 46 52 49 47 46 37 42 55 62 61 54 48 45 40 33 24 17 13 9 14 13 11 11 11 11 13 17 21 25 30 34 37 40
23 20 14 31 35 29 28 45 47 38 51 51 51 62 41 33 35 49 60 74 73 62 58 53 45 39 31 22 15 14 15 14 15 11 10 9 13 17 21 26 32 35 40 43
15 20 10 15 11 33 31 44 47 53 50 47 42 48 38 42 52 60 66 73 65 66 63 57 53 41 30 28 23 26 22 15 12 8 7 8 12 14 20 25 29 31 36 40
23 21 15 16 22 12 15 19 32 33 55 52 51 56 59 25 22 40 54 66 74 71 66 59 49 38 38 35 32 29 19 17 13 8 3 6 9 14 19 24 29 32 34 36
36 36 27 10 18 22 36 18 30 19 31 33 57 56 47 38 22 35 58 70 73 71 61 54 46 40 38 32 29 23 20 17 11 6 2 5 12 18 23 27 28 33 36 38
17 25 36 33 18 11 20 12 40 23 28 33 64 78 45 33 52 22 67 70 69 69 64 56 46 38 37 32 25 23 22 17 10 6 3 6 12 15 18 23 28 32 35 37
25 14 16 35 23 33 20 28 37 34 20 13 36 45 72 61 34 38 56 68 70 67 57 48 42 41 35 27 25 24 19 14 10 6 1 6 12 18 22 25 28 29 31 35
11 12 10 13 13 1 33 26 39 22 11 24 33 44 55 56 44 50 62 68 64 60 53 48 44 38 30 28 25 22 19 14 8 3 4 9 15 18 19 20 22 26 31 36
8 8 17 19 36 34 30 45 39 40 29 27 31 39 54 58 56 57 60 61 61 59 54 47 40 36 32 28 25 21 17 11 7 5 7 11 13 14 16 19 23 27 31 35
5 18 17 17 17 10 38 49 52 44 42 33 33 41 50 57 59 64 65 62 59 56 50 43 39 36 32 29 24 19 14 10 7 8 10 12 13 14 16 21 24 27 29 32
15 14 12 16 8 18 11 25 56 57 44 39 40 45 44 52 57 63 64 60 57 52 46 42 40 36 31 26 20 16 12 10 10 10 11 12 14 16 18 19 20 23 25 28
Wind_Direction_500mb
192 197 207 205 212 226 248 238 241 244 231 254 257 265 269 276 271 273 277 278 278 274 280 288 292 300 299 293 288 284 281 274 270 262 261 260 258 259 261 265 268 268 268 266
188 221 209 218 223 223 228 237 238 259 222 246 275 272 269 271 266 263 268 273 269 277 285 294 304 300 295 292 291 283 275 268 265 254 256 260 262 261 266 272 272 271 270 269
209 204 204 200 209 219 227 237 242 248 263 259 291 285 269 251 253 258 254 254 268 278 296 304 305 310 306 299 290 285 274 270 260 259 257 258 256 259 259 263 266 270 275 278
227 217 198 210 221 207 225 221 246 243 252 257 348 285 294 295 263 247 260 257 268 291 289 299 308 313 318 313 302 291 277 265 256 252 246 250 252 256 261 268 273 277 276 276
200 198 204 209 220 209 233 165 202 194 229 300 248 274 291 133 255 274 260 264 275 273 287 308 315 332 351 347 340 321 283 257 248 239 234 236 241 249 257 261 270 276 279 284
229 353 207 203 180 198 192 178 204 221 247 254 252 237 267 250 238 242 267 175 179 210 222 174 106 92 76 69 70 70 71 107 199 225 228 225 230 239 250 257 266 270 274 277
195 212 161 174 189 176 179 161 201 201 206 243 297 214 252 157 235 303 300 215 166 163 152 147 139 122 111 104 100 99 100 104 108 127 148 159 179 207 235 246 251 258 259 260
206 210 204 186 205 192 196 193 196 218 222 231 143 232 243 181 338 340 295 147 152 141 147 142 133 122 116 109 103 100 97 99 102 103 103 107 114 115 115 106 102 85 349 315
200 224 233 197 187 190 186 217 230 274 106 265 227 241 251 218 218 152 148 152 150 145 138 134 130 126 116 112 106 99 97 96 96 95 95 95 92 91 85 77 67 55 37 15
189 209 195 188 199 219 201 162 164 200 211 222 238 256 251 182 187 169 172 172 168 159 148 142 135 126 118 113 108 107 104 101 97 95 93 92 91 88 83 73 58 42 25 6
168 214 167 154 206 200 202 210 219 254 225 241 258 252 259 237 195 191 190 185 174 164 156 151 145 136 126 119 114 109 106 103 104 100 95 95 92 80 58 34 21 4 351 334
202 216 215 208 276 235 219 215 206 213 203 239 263 265 157 181 207 202 191 180 173 167 164 160 156 148 139 132 122 112 108 106 100 91 75 55 31 13 3 359 356 348 345 343
177 213 197 214 240 215 224 220 219 218 6 218 217 248 160 193 194 195 188 184 178 171 168 168 165 164 162 152 143 134 113 76 48 21 14 8 3 11 5 359 356 351 348 339
173 217 219 227 235 192 214 212 214 216 227 238 231 253 247 216 209 200 202 193 186 181 179 174 175 177 176 171 163 149 137 120 174 337 342 340 345 351 2 1 354 351 350 347
187 225 222 238 247 219 219 215 213 213 226 225 243 238 252 246 214 210 205 193 190 189 187 187 186 188 193 197 209 226 271 304 326 328 328 331 335 357 358 6 4 3 3 1
198 231 223 239 234 228 229 224 222 223 228 234 243 251 245 259 222 212 198 194 193 192 192 193 199 202 205 215 222 244 264 276 293 300 303 330 352 356 3 7 9 8 5 5
200 217 192 235 222 222 233 223 219 219 223 227 231 237 247 239 209 206 203 197 193 191 193 197 199 201 206 217 234 252 255 261 272 291 324 336 0 18 13 16 15 12 11 8
230 209 217 244 166 222 230 235 227 224 229 229 239 246 242 237 223 219 218 197 190 194 196 199 200 201 205 216 230 253 256 267 261 262 292 343 18 21 24 22 20 16 14 10
230 237 229 228 216 279 292 224 207 207 242 231 226 240 241 234 192 232 208 198 198 197 199 202 203 205 219 225 228 235 234 233 235 241 284 13 23 28 26 22 14 11 10 10
221 226 219 188 231 221 231 195 186 170 254 232 218 235 232 160 209 237 197 193 197 202 203 201 201 205 214 215 213 212 218 217 215 221 181 44 33 26 17 12 8 7 4 0
205 215 231 219 234 245 256 153 152 183 257 185 202 221 196 199 224 241 191 191 199 197 199 198 201 203 212 211 203 204 206 206 195 170 105 32 23 15 9 1 354 353 354 349
218 225 242 219 224 237 149 155 192 226 241 213 214 209 195 204 206 181 183 185 189 191 193 194 195 200 201 203 203 201 198 192 184 179 92 2 358 358 354 346 343 340 340 340
215 190 238 267 235 287 196 229 220 247 237 220 216 212 196 193 183 176 175 182 183 188 190 191 195 198 202 203 197 199 199 194 193 210 329 339 341 337 333 334 336 338 339 342
237 143 231 241 263 256 236 222 229 229 231 236 231 218 205 195 184 176 175 177 180 184 187 192 195 199 198 195 195 198 196 199 214 267 305 313 315 324 335 341 341 341 342 342
160 142 210 249 248 287 259 243 235 230 229 229 214 206 202 196 184 182 178 180 182 184 186 190 194 195 195 194 193 194 198 214 243 271 289 301 316 329 337 339 344 346 342 340
179 186 215 245 324 243 273 256 227 231 227 216 209 196 194 200 189 183 179 181 183 184 187 189 190 191 192 192 193 199 210 230 252 274 294 306 316 324 329 332 338 339 337 332
Wind_Speed_850mb
23 20 33 41 42 32 21 28 34 23 9 9 34 39 38 42 37 38 45 50 52 63 66 57 55 52 58 61 60 57 58 57 64 69 60 57 66 63 62 61 55 51 52 53
12 33 28 26 32 37 34 32 31 16 8 10 32 47 36 41 46 48 51 51 60 62 52 44 40 52 57 62 60 54 52 56 56 60 60 53 49 57 55 55 54 53 52 52
38 10 37 18 23 39 40 41 33 31 9 16 24 51 38 29 36 39 39 50 51 52 44 40 51 50 51 49 55 51 48 47 46 47 47 47 42 46 50 52 51 50 47 43
29 43 17 39 33 28 35 23 21 22 9 18 2 22 28 29 32 29 42 42 42 33 27 34 34 38 34 34 35 39 37 37 39 39 38 39 34 31 26 25 29 34 37 36
18 27 40 36 42 35 24 14 18 13 15 13 33 17 5 18 14 30 40 28 21 19 13 13 13 16 18 16 15 14 15 21 24 26 28 24 25 21 25 28 27 27 27 27
19 1 32 29 15 31 17 14 11 14 17 26 38 30 27 26 21 8 8 8 8 5 4 3 3 6 8 11 14 13 10 4 5 11 17 19 19 20 23 26 28 26 27 28
20 22 9 12 26 15 26 22 8 12 14 21 4 25 35 7 13 21 24 7 10 14 15 16 16 16 17 18 20 24 25 26 22 17 16 16 14 14 15 18 21 25 28 31
28 18 37 26 30 20 37 31 13 17 21 18 6 22 16 9 3 7 1 17 16 15 19 19 19 20 22 22 24 26 28 31 30 29 27 24 21 19 15 11 7 2 2 6
24 24 3 14 15 31 21 32 31 13 5 3 14 20 17 21 10 12 21 23 22 19 19 22 23 24 26 26 26 27 28 30 30 30 28 25 22 20 18 15 12 11 10 10
13 8 10 25 12 22 17 22 9 11 15 14 23 30 26 14 15 17 25 33 31 27 28 27 27 28 27 28 29 29 29 29 29 28 26 25 22 19 16 13 11 11 11 12
17 8 11 14 35 40 22 20 15 9 14 15 19 22 15 26 19 26 33 32 33 31 32 35 31 30 27 25 24 24 23 22 21 20 19 15 13 10 7 6 7 9 12 14
31 13 19 27 3 31 41 40 41 17 18 13 21 34 14 14 15 25 29 35 34 33 35 36 32 27 24 22 19 16 15 14 13 11 9 7 8 7 8 11 13 15 18 20
30 16 10 10 11 11 24 38 37 34 1 30 19 18 9 13 16 23 31 38 40 38 38 35 32 28 22 17 16 13 9 8 7 7 8 9 10 10 12 14 16 16 18 21
46 24 33 32 25 20 30 35 39 36 18 37 32 47 38 24 25 30 37 44 45 43 42 37 33 31 24 17 12 8 4 4 1 4 11 12 11 12 14 17 21 24 24 25
24 17 37 40 35 20 37 44 42 45 51 33 43 41 53 40 33 49 51 50 50 45 42 43 37 30 26 20 13 9 7 6 8 11 12 11 9 15 21 25 26 29 33 36
23 17 25 36 35 31 25 27 41 50 50 46 52 49 47 46 37 42 55 62 61 54 48 45 40 33 24 17 13 9 14 13 11 11 11 11 13 17 21 25 30 34 37 40
23 20 14 31 35 29 28 45 47 38 51 51 51 62 41 33 35 49 60 74 73 62 58 53 45 39 31 22 15 14 15 14 15 11 10 9 13 17 21 26 32 35 40 43
15 20 10 15 11 33 31 44 47 53 50 47 42 48 38 42 52 60 66 73 65 66 63 57 53 41 30 28 23 26 22 15 12 8 7 8 12 14 20 25 29 31 36 40
23 21 15 16 22 12 15 19 32 33 55 52 51 56 59 25 22 40 54 66 74 71 66 59 49 38 38 35 32 29 19 17 13 8 3 6 9 14 19 24 29 32 34 36
36 36 27 10 18 22 36 18 30 19 31 33 57 56 47 38 22 35 58 70 73 71 61 54 46 40 38 32 29 23 20 17 11 6 2 5 12 18 23 27 28 33 36 38
17 25 36 33 18 11 20 12 40 23 28 33 64 78 45 33 52 22 67 70 69 69 64 56 46 38 37 32 25 23 22 17 10 6 3 6 12 15 18 23 28 32 35 37
25 14 16 35 23 33 20 28 37 34 20 13 36 45 72 61 34 38 56 68 70 67 57 48 42 41 35 27 25 24 19 14 10 6 1 6 12 18 22 25 28 29 31 35
11 12 10 13 13 1 33 26 39 22 11 24 33 44 55 56 44 50 62 68 64 60 53 48 44 38 30 28 25 22 19 14 8 3 4 9 15 18 19 20 22 26 31 36
8 8 17 19 36 34 30 45 39 40 29 27 31 39 54 58 56 57 60 61 61 59 54 47 40 36 32 28 25 21 17 11 7 5 7 11 13 14 16 19 23 27 31 35
5 18 17 17 17 10 38 49 52 44 42 33 33 41 50 57 59 64 65 62 59 56 50 43 39 36 32 29 24 19 14 10 7 8 10 12 13 14 16 21 24 27 29 32
15 14 12 16 8 18 11 25 56 57 44 39 40 45 44 52 57 63 64 60 57 52 46 42 40 36 31 26 20 16 12 10 10 10 11 12 14 16 18 19 20 23 25 28
Wind_Direction_850mb
192 197 207 205 212 226 248 238 241 244 231 254 257 265 269 276 271 273 277 278 278 274 280 288 292 300 299 293 288 284 281 274 270 262 261 260 258 259 261 265 268 268 268 266
188 221 209 218 223 223 228 237 238 259 222 246 275 272 269 271 266 263 268 273 269 277 285 294 304 300 295 292 291 283 275 268 265 254 256 260 262 261 266 272 272 271 270 269
209 204 204 200 209 219 227 237 242 248 263 259 291 285 269 251 253 258 254 254 268 278 296 304 305 310 306 299 290 285 274 270 260 259 257 258 256 259 259 263 266 270 275 278
227 217 198 210 221 207 225 221 246 243 252 257 348 285 294 295 263 247 260 257 268 291 289 299 308 313 318 313 302 291 277 265 256 252 246 250 252 256 261 268 273 277 276 276
200 198 204 209 220 209 233 165 202 194 229 300 248 274 291 133 255 274 260 264 275 273 287 308 315 332 351 347 340 321 283 257 248 239 234 236 241 249 257 261 270 276 279 284
229 353 207 203 180 198 192 178 204 221 247 254 252 237 267 250 238 242 267 175 179 210 222 174 106 92 76 69 70 70 71 107 199 225 228 225 230 239 250 257 266 270 274 277
195 212 161 174 189 176 179 161 201 201 206 243 297 214 252 157 235 303 300 215 166 163 152 147 139 122 111 104 100 99 100 104 108 127 148 159 179 207 235 246 251 258 259 260
206 210 204 186 205 192 196 193 196 218 222 231 143 232 243 181 338 340 295 147 152 141 147 142 133 122 116 109 103 100 97 99 102 103 103 107 114 115 115 106 102 85 349 315
200 224 233 197 187 190 186 217 230 274 106 265 227 241 251 218 218 152 148 152 150 145 138 134 130 126 116 112 106 99 97 96 96 95 95 95 92 91 85 77 67 55 37 15
189 209 195 188 199 219 201 162 164 200 211 222 238 256 251 182 187 169 172 172 168 159 148 142 135 126 118 113 108 107 104 101 97 95 93 92 91 88 83 73 58 42 25 6
168 214 167 154 206 200 202 210 219 254 225 241 258 252 259 237 195 191 190 185 174 164 156 151 145 136 126 119 114 109 106 103 104 100 95 95 92 80 58 34 21 4 351 334
202 216 215 208 276 235 219 215 206 213 203 239 263 265 157 181 207 202 191 180 173 167 164 160 156 148 139 132 122 112 108 106 100 91 75 55 31 13 3 359 356 348 345 343
177 213 197 214 240 215 224 220 219 218 6 218 217 248 160 193 194 195 188 184 178 171 168 168 165 164 162 152 143 134 113 76 48 21 14 8 3 11 5 359 356 351 348 339
173 217 219 227 235 192 214 212 214 216 227 238 231 253 247 216 209 200 202 193 186 181 179 174 175 177 176 171 163 149 137 120 174 337 342 340 345 351 2 1 354 351 350 347
187 225 222 238 247 219 219 215 213 213 226 225 243 238 252 246 214 210 205 193 190 189 187 187 186 188 193 197 209 226 271 304 326 328 328 331 335 357 358 6 4 3 3 1
198 231 223 239 234 228 229 224 222 223 228 234 243 251 245 259 222 212 198 194 193 192 192 193 199 202 205 215 222 244 264 276 293 300 303 330 352 356 3 7 9 8 5 5
200 217 192 235 222 222 233 223 219 219 223 227 231 237 247 239 209 206 203 197 193 191 193 197 199 201 206 217 234 252 255 261 272 291 324 336 0 18 13 16 15 12 11 8
230 209 217 244 166 222 230 235 227 224 229 229 239 246 242 237 223 219 218 197 190 194 196 199 200 201 205 216 230 253 256 267 261 262 292 343 18 21 24 22 20 16 14 10
230 237 229 228 216 279 292 224 207 207 242 231 226 240 241 234 192 232 208 198 198 197 199 202 203 205 219 225 228 235 234 233 235 241 284 13 23 28 26 22 14 11 10 10
221 226 219 188 231 221 231 195 186 170 254 232 218 235 232 160 209 237 197 193 197 202 203 201 201 205 214 215 213 212 218 217 215 221 181 44 33 26 17 12 8 7 4 0
205 215 231 219 234 245 256 153 152 183 257 185 202 221 196 199 224 241 191 191 199 197 199 198 201 203 212 211 203 204 206 206 195 170 105 32 23 15 9 1 354 353 354 349
218 225 242 219 224 237 149 155 192 226 241 213 214 209 195 204 206 181 183 185 189 191 193 194 195 200 201 203 203 201 198 192 184 179 92 2 358 358 354 346 343 340 340 340
215 190 238 267 235 287 196 229 220 247 237 220 216 212 196 193 183 176 175 182 183 188 190 191 195 198 202 203 197 199 199 194 193 210 329 339 341 337 333 334 336 338 339 342
237 143 231 241 263 256 236 222 229 229 231 236 231 218 205 195 184 176 175 177 180 184 187 192 195 199 198 195 195 198 196 199 214 267 305 313 315 324 335 341 341 341 342 342
160 142 210 249 248 287 259 243 235 230 229 229 214 206 202 196 184 182 178 180 182 184 186 190 194 195 195 194 193 194 198 214 243 271 289 301 316 329 337 339 344 346 342 340
179 186 215 245 324 243 273 256 227 231 227 216 209 196 194 200 189 183 179 181 183 184 187 189 190 191 192 192 193 199 210 230 252 274 294 306 316 324 329 332 338 339 337 332